Regional Weather Roundup
Issued by NWS

Home | Current Version | Previous Version | Text Only | Print | Product List | Glossary On
Versions: 1 2 3 4 5 6 7 8 9 10 11 12 13 14 15 16 17 18 19 20 21 22 23 24 25 26 27 28 29 30 31 32 33 34 35 36 37 38 39 40 41 42 43 44 45 46 47 48 49 50
000
ASUS45 KABQ 282110
RWRNM
NEW MEXICO REGIONAL WEATHER ROUNDUP
NATIONAL WEATHER SERVICE ALBUQUERQUE NM
300 PM MDT WED SEP 28 2016

NOTE: "FAIR" MEANS FEW OR NO CLOUDS BELOW 12,000 FEET AGL WITH NO
       SIGNIFICANT WEATHER OR OBSTRUCTIONS TO VISION.

      THIS PRODUCT IS RELEASED AS TWO VERSIONS.  ONE VERSION NEAR
      THE TOP OF THE HOUR CONTAINING PRELIMINARY DATA FROM ALBUQUERQUE
      AND OTHER STATIONS.  A FINAL VERSION WITH ADDITIONAL DATA IS
      ISSUED ABOUT 10 MINUTES AFTER THE HOUR.

NMZ501-503-504-510>518-282200-
NORTHWEST PLATEAU/NORTHCENTRAL MOUNTAINS

CITY           SKY/WX    TMP DP  RH WIND       PRES   REMARKS
FARMINGTON     FAIR      78  35  21 SE6       30.23F
LOS ALAMOS     FAIR      75  27  16 CALM      30.37F
SANTA FE       FAIR      80  26  13 SE13G20   30.29F
TAOS           FAIR      79  25  13 SE14G23     N/A

$$
NMZ402-403-502-505>509-282200-
WESTCENTRAL MOUNTAINS/SOUTHWEST MOUNTAINS

CITY           SKY/WX    TMP DP  RH WIND       PRES   REMARKS
GALLUP         CLOUDY    73  41  31 W8G17     30.31F
SILVER CITY    FAIR      77  50  38 S9G22     30.25S

$$
NMZ407-409-411-412-282200-
SOUTHERN DESERTS

CITY           SKY/WX    TMP DP  RH WIND       PRES   REMARKS
DEMING         FAIR      79  53  40 E8G16     30.19F
LAS CRUCES     FAIR      79  50  36 SE7       30.21F
HOLLOMAN AFB   FAIR      80  50  35 SE7       30.17F
ALAMOGORDO     FAIR      77  50  38 S7        30.19F
T OR C         FAIR      80  47  31 SE7       30.21F

$$
NMZ519>523-282200-
CENTRAL VALLEYS/CENTRAL HIGHLANDS

CITY           SKY/WX    TMP DP  RH WIND       PRES   REMARKS
ALBUQUERQUE    PTSUNNY   79  44  28 W3        30.25F
DOUBLE EAGLE   PTSUNNY   81  43  26 S7        30.28F
MORIARTY ARPT  FAIR      82  25  12 E12G18    30.32R
CLINES CORNERS FAIR      75  29  18 E12       30.38S
BELEN          FAIR      81  40  23 W6        30.24F
SOCORRO        FAIR      82  42  23 E6        30.22F

$$
NMZ524>526-539-540-282200-
SOUTHCENTRAL MOUNTAINS

CITY           SKY/WX    TMP DP  RH WIND       PRES   REMARKS
RUIDOSO        FAIR      73  41  31 SE12      30.37S

$$
NMZ527>531-282200-
NORTHEAST HIGHLANDS/NORTHEAST PLAINS

CITY           SKY/WX    TMP DP  RH WIND       PRES   REMARKS
LAS VEGAS      FAIR      78  27  15 NE12G17   30.37F
RATON          FAIR      78  28  16 E9        30.34
CLAYTON        FAIR      82  33  17 E9        30.28S

$$
NMZ532>537-282200-
EASTCENTRAL PLAINS

CITY           SKY/WX    TMP DP  RH WIND       PRES   REMARKS
TUCUMCARI      FAIR      88  30  12 SE8       30.19F
CANNON AFB     NOT AVBL
CLOVIS AIRPORT FAIR      82  41  23 E7        30.22S

$$
NMZ028-029-538-282200-
SOUTHEAST PLAINS

CITY           SKY/WX    TMP DP  RH WIND       PRES   REMARKS
ROSWELL        FAIR      85  43  22 VRB3      30.17F
ARTESIA        FAIR      81  54  39 S6        30.18S
CARLSBAD       FAIR      79  54  41 VRB3      30.16S
HOBBS          SUNNY     81  46  30 VRB3      30.19F


$$



USA.gov is the U.S. government's official web portal to all federal, state and local government web resources and services.